Location: Alexandria
(38.8050°N, 77.0470°W)
Time: 01:09:58
(UTC-04:00)

KAITUO 1B - Pass Details

Date: 23 February 2018
Orbit: 499 x 520 km, 97.5° (Epoch: 23 June)

Event Time Altitude Azimuth Distance (km) Brightness Sun altitude
Rises 05:18:58 0° 37° (NE) 2,616 ? -18.3°
Reaches altitude 10° 05:22:24 10° 71° (ENE) 1,730 ? -17.6°
Maximum altitude 05:23:42 12° 92° (E) 1,637 ? -17.3°
Drops below altitude 10° 05:25:00 10° 112° (ESE) 1,730 ? -17.1°
Sets 05:28:25 0° 147° (SSE) 2,615 ? -16.4°
